Home > Weather > Lawrence > Past weeks

Flag for U.S.A. Weather for the Past 2 Weeks in Lawrence, Kansas, U.S.A.

Now
34 °F

Overcast.


Feels Like: 21 °F
Forecast: 26 / 34 °F
Wind: 29 mph from Northwest

Location: Lawrence Municipal Airport

Current Time: Feb 8, 2016 at 2:08:19 PM

Latest Report: Feb 8, 2016 at 12:52 PM


Visibility: 10 mi

Pressure: 30.12 "Hg

Humidity: 48%

Dew point: 16 °F

Location of LawrenceLocation

Historic Weather in Lawrence — Graph

°F

Lawrence Temperature Yesterday

Maximum temperature yesterday: 53 °F (at 1:52 PM)
Minimum temperature yesterday: 35 °F (at 6:52 AM)
Average temperature yesterday: 43 °F

High & Low Weather Summary for the Past Weeks

 TemperatureHumidityPressure
High68 °F (Jan 29, 2:52 PM)96% (Jan 29, 2:52 AM)30.47 "Hg (Jan 29, 2:52 AM)
Low14 °F (Feb 4, 4:52 AM)26% (Feb 7, 3:52 PM)29.35 "Hg (Feb 2, 1:52 PM)
Average37 °F69%29.99 "Hg
* Reported Jan 24 12:52 PM — Feb 8 12:52 PM, Lawrence, Weather by CustomWeather, © 2016

Note: Actual official high and low records may vary slightly from our data, if they occured in-between our weather recording intervals... More about our weather records

Advertising

Lawrence Weather History for the Previous 24 Hours

 ConditionsComfort  
Time TempWeatherWind HumidityBarometerVisibility
12:52 PM
Mon, Feb 8
34 °FOvercast.29 mph48%30.12 "Hg10 mi
11:52 AM34 °FOvercast.33 mph46%30.12 "Hg10 mi
10:52 AM33 °FOvercast.31 mph52%30.12 "Hg10 mi
9:52 AM32 °FMostly cloudy.36 mph52%30.11 "Hg10 mi
8:52 AM32 °FOvercast.20 mph56%30.09 "Hg10 mi
7:52 AM31 °FCloudy.18 mph61%30.07 "Hg10 mi
6:52 AM31 °FLight snow. Mostly cloudy.22 mph76%30.07 "Hg7 mi
5:52 AM35 °FMostly cloudy.15 mph54%30.03 "Hg10 mi
4:52 AM35 °FOvercast.24 mph52%30.03 "Hg10 mi
3:52 AM35 °FOvercast.15 mph54%30.03 "Hg10 mi
2:52 AM35 °FOvercast.25 mph52%30.04 "Hg10 mi
1:52 AM36 °FMostly cloudy.20 mph57%30.04 "Hg10 mi
12:52 AM34 °FPassing clouds.23 mph67%30.06 "Hg10 mi
11:52 PM
Sun, Feb 7
38 °FLight rain. Mostly cloudy.13 mph68%30.04 "Hg10 mi
10:52 PM38 °FLight snow. Mostly cloudy.23 mph65%30.05 "Hg7 mi
9:52 PM40 °FOvercast.14 mph55%30.06 "Hg10 mi
8:52 PM40 °FMostly cloudy.20 mph58%30.07 "Hg10 mi
7:52 PM40 °FPassing clouds.31 mph58%30.09 "Hg10 mi
6:52 PM43 °FMostly cloudy.36 mph42%30.08 "Hg10 mi
5:52 PM46 °FMostly cloudy.18 mph34%30.04 "Hg10 mi
4:52 PM48 °FPartly sunny.22 mph27%30.05 "Hg10 mi
3:52 PM50 °FPartly sunny.25 mph26%30.03 "Hg10 mi
2:52 PM51 °FSunny.18 mph36%30.05 "Hg10 mi
Weather by CustomWeather, © 2016

See weather overviewHow to use our weather pages